Wind_Speed
43 43 43 44 45 44 44 44 44 42 41 41 42 43 44 44 44 44 44 45 45 45 46 47 48 48 47 47 46 45 46 47 47 47 47 48 48 48
45 45 45 46 46 45 45 45 45 44 44 43 44 44 45 45 45 45 46 46 47 47 48 48 48 48 46 45 45 46 46 47 48 48 49 49 49 49
45 45 45 46 46 46 45 45 46 46 46 45 46 46 46 47 47 47 48 48 48 49 49 48 48 46 46 46 47 47 48 48 49 49 49 50 49 48
45 45 45 46 46 46 45 46 46 47 47 47 46 47 48 48 47 48 48 48 49 49 49 48 47 46 47 48 48 49 49 49 49 50 50 49 48 48
46 46 46 46 46 46 46 47 48 48 48 48 48 48 48 48 48 48 48 49 49 48 48 47 47 47 48 48 49 49 50 50 49 49 48 48 48 48
46 46 47 47 46 47 47 48 48 48 49 49 48 48 48 48 48 48 48 48 48 48 48 48 48 48 49 49 49 49 49 48 48 48 47 47 47 47
47 47 47 47 47 47 48 48 48 48 48 49 48 48 48 48 48 48 48 48 47 47 48 48 48 48 49 49 49 49 48 47 47 47 47 47 47 48
49 49 48 48 48 48 48 48 49 48 49 49 49 48 48 49 49 48 48 48 47 47 48 48 47 48 48 48 48 47 47 48 48 47 47 47 48 48
49 49 48 48 49 48 48 48 48 49 49 49 49 49 50 50 49 48 48 48 48 48 47 47 47 47 47 47 47 47 47 48 48 48 47 47 48 48
49 49 48 48 49 48 48 48 49 49 49 50 50 50 50 50 49 49 49 48 48 48 47 47 47 47 46 47 47 47 47 47 47 48 48 48 47 46
50 49 49 49 49 49 49 49 49 49 50 50 50 50 50 50 49 49 49 49 48 48 48 47 46 46 46 46 47 47 47 47 47 47 47 46 45 45
50 49 49 49 49 49 50 49 50 50 50 50 50 49 50 50 50 50 49 49 48 47 47 47 47 46 45 46 47 47 47 47 47 46 45 44 44 44
50 49 49 49 49 50 50 50 50 50 50 50 49 49 50 50 49 49 49 48 47 46 47 47 46 46 46 46 45 46 46 46 46 45 44 44 43 42
49 49 50 50 51 51 51 50 50 50 50 49 49 49 49 48 48 48 48 47 46 46 46 46 45 45 45 44 44 44 44 44 44 44 42 41 41 41
50 50 50 50 50 50 50 50 49 49 48 48 48 48 47 46 46 46 45 45 44 44 44 44 43 43 43 43 42 42 42 42 42 41 39 39 39 39
48 49 49 48 48 48 48 48 47 47 47 47 47 47 46 45 45 44 42 42 42 42 43 42 42 42 42 42 42 42 42 41 40 39 38 37 37 37
47 47 47 46 46 46 46 46 47 47 46 46 45 45 44 43 42 40 40 40 40 40 40 40 40 40 41 42 41 41 41 40 38 37 37 36 36 35
47 46 46 46 46 47 47 47 47 46 45 45 44 43 41 40 39 39 40 40 39 39 39 39 39 39 40 41 41 40 39 38 37 36 36 34 33 33
47 46 46 46 46 46 46 46 45 45 44 44 43 41 40 39 39 39 39 39 39 39 38 38 39 38 38 38 38 38 36 35 35 34 33 33 32 30
47 46 46 46 46 45 45 44 44 44 43 42 41 40 39 39 38 38 38 38 38 38 37 37 37 37 37 36 35 35 35 34 33 32 32 31 30 29
46 46 46 45 44 43 43 42 42 42 41 40 40 39 38 38 37 37 37 37 37 36 35 35 36 36 36 35 34 33 33 33 32 31 30 29 27 26
44 44 44 44 42 42 41 41 40 39 39 38 37 36 36 36 36 36 36 36 35 34 34 34 34 34 34 33 32 32 31 31 31 30 30 28 25 23
41 41 41 41 41 40 40 39 38 37 36 36 35 34 34 35 34 34 34 33 33 32 32 32 32 31 31 30 30 29 28 27 27 26 26 25 23 21
Wind_Direction
276 278 280 282 284 285 286 287 288 290 290 292 292 293 293 293 293 293 293 293 294 294 294 295 296 297 296 295 294 293 294 294 294 294 294 293 292 290
275 277 279 281 283 284 285 287 288 289 290 292 292 292 292 292 293 293 293 293 294 295 295 295 296 296 295 295 294 294 294 294 295 294 294 293 292 291
276 278 280 281 282 283 285 286 287 289 290 291 292 292 291 292 292 293 294 294 294 295 295 295 295 294 294 295 295 295 295 295 295 295 294 293 291 291
276 278 279 280 281 282 284 285 287 288 290 291 292 292 292 292 293 294 294 294 295 295 296 295 294 293 294 294 295 295 295 295 295 295 294 293 291 290
275 277 278 279 280 281 283 285 287 289 290 291 292 292 292 292 293 293 294 295 295 296 295 294 294 294 294 294 295 295 295 295 295 295 295 293 292 290
276 277 278 279 281 282 284 285 288 289 290 291 291 292 292 292 293 293 294 294 295 295 295 295 295 294 295 295 295 295 295 295 295 295 295 294 293 291
276 277 278 279 281 282 284 286 288 289 290 291 291 291 291 292 293 293 293 294 294 294 294 295 295 295 296 296 295 295 295 295 295 296 295 294 294 292
276 277 278 279 281 282 283 286 287 289 290 291 291 291 292 293 293 293 293 293 293 294 295 296 296 296 297 296 296 295 295 296 296 296 296 296 294 293
275 276 278 279 281 282 284 286 287 289 289 290 291 291 292 292 292 292 293 293 293 293 294 296 297 297 297 296 296 296 297 297 296 296 297 297 296 295
276 276 277 279 281 282 284 285 287 288 289 290 291 292 292 293 292 292 292 293 293 294 295 296 296 296 296 296 297 298 298 298 297 297 297 298 298 297
276 277 277 278 280 282 283 285 286 287 288 289 290 291 292 292 292 292 292 293 293 294 295 295 295 295 295 296 298 299 299 298 297 298 298 298 298 297
275 276 278 279 281 282 283 284 285 285 287 288 290 291 291 292 292 292 292 293 293 293 293 294 295 295 295 295 297 299 299 299 298 299 299 298 298 297
274 276 277 279 281 282 283 284 284 285 287 288 289 290 291 292 292 292 292 292 293 293 293 294 295 296 296 295 296 298 299 299 299 299 298 298 298 298
274 275 277 279 281 282 283 284 284 286 287 288 289 290 291 291 291 292 292 292 292 293 294 295 296 296 297 296 297 298 299 300 300 299 298 299 299 299
275 276 278 280 281 283 284 284 285 286 286 287 289 290 290 290 291 292 291 292 293 294 295 296 296 298 298 299 299 299 300 301 301 300 299 299 299 299
275 277 278 280 281 282 283 284 285 286 287 288 289 290 290 290 290 291 291 292 293 294 295 296 297 298 300 301 302 302 302 302 301 300 300 300 300 300
275 277 278 279 281 282 283 285 286 287 288 289 290 290 289 290 290 291 291 292 292 293 294 296 298 299 301 302 303 304 304 303 302 301 302 302 302 301
275 276 278 279 281 282 283 284 285 286 287 287 288 288 287 288 289 290 291 292 292 293 294 295 296 299 301 303 304 305 305 304 303 303 304 303 303 300
275 277 278 279 280 281 283 283 284 285 285 285 285 284 285 286 287 289 290 291 291 292 294 295 296 298 300 301 303 305 306 305 304 304 305 305 305 302
274 276 277 279 280 281 282 282 283 283 284 283 282 282 283 284 286 288 289 291 291 292 293 295 297 299 301 302 304 305 305 305 305 305 305 306 305 304
274 276 277 279 280 280 280 281 281 282 282 282 282 281 282 284 286 288 289 291 292 292 293 295 296 299 301 303 304 306 306 306 306 307 307 307 305 304
275 276 277 277 278 278 279 280 280 281 281 281 281 281 283 284 286 288 289 290 291 292 294 296 297 299 302 304 305 307 307 307 308 309 310 310 308 305
277 276 276 276 276 276 277 278 279 280 280 281 281 281 283 285 287 288 289 291 292 294 296 298 298 300 302 305 307 308 308 308 309 310 311 311 311 309
Height
5750 5749 5747 5745 5742 5739 5737 5734 5732 5730 5728 5725 5721 5716 5711 5707 5703 5700 5696 5692 5689 5685 5682 5678 5674 5669 5665 5661 5657 5653 5649 5645 5641 5637 5633 5629 5625 5621
5739 5738 5736 5734 5731 5729 5726 5724 5721 5718 5716 5714 5710 5705 5701 5696 5692 5689 5685 5681 5678 5674 5670 5666 5662 5657 5653 5649 5645 5641 5637 5633 5629 5625 5621 5616 5612 5608
5728 5726 5725 5723 5720 5718 5716 5713 5710 5707 5705 5703 5698 5694 5690 5686 5682 5678 5674 5670 5666 5662 5658 5653 5649 5645 5641 5637 5633 5629 5625 5621 5616 5612 5607 5603 5598 5595
5716 5715 5713 5711 5709 5707 5705 5702 5699 5696 5693 5691 5687 5683 5678 5674 5671 5667 5663 5658 5654 5650 5645 5640 5636 5633 5629 5625 5621 5617 5612 5608 5603 5599 5594 5590 5585 5581
5704 5703 5702 5700 5698 5696 5693 5691 5688 5685 5681 5678 5675 5671 5667 5662 5659 5655 5651 5646 5642 5637 5633 5629 5625 5620 5616 5612 5608 5604 5599 5595 5590 5586 5581 5576 5572 5567
5693 5691 5690 5688 5687 5684 5682 5679 5676 5673 5670 5666 5662 5659 5655 5651 5647 5643 5640 5635 5630 5626 5621 5617 5613 5608 5604 5599 5595 5591 5586 5582 5577 5572 5568 5563 5559 5554
5681 5680 5678 5676 5674 5672 5670 5667 5664 5661 5658 5654 5650 5647 5643 5639 5635 5631 5627 5624 5619 5614 5610 5605 5601 5596 5592 5587 5582 5578 5573 5569 5564 5560 5555 5550 5546 5541
5669 5668 5666 5665 5663 5661 5658 5655 5652 5649 5646 5642 5638 5635 5631 5627 5623 5618 5615 5611 5608 5603 5598 5594 5589 5584 5579 5574 5569 5565 5561 5556 5552 5547 5542 5538 5533 5528
5656 5655 5654 5652 5651 5649 5646 5643 5640 5637 5633 5630 5627 5623 5619 5615 5611 5607 5603 5599 5595 5590 5586 5582 5577 5573 5568 5562 5557 5553 5548 5544 5539 5534 5530 5525 5520 5515
5643 5642 5641 5640 5638 5636 5634 5631 5628 5625 5621 5618 5614 5610 5606 5602 5598 5594 5591 5587 5583 5578 5573 5570 5566 5561 5556 5551 5545 5541 5536 5531 5526 5521 5516 5512 5507 5501
5630 5629 5628 5627 5625 5623 5621 5619 5616 5612 5609 5605 5601 5597 5593 5589 5585 5582 5578 5575 5572 5568 5562 5558 5554 5550 5545 5539 5533 5528 5523 5518 5513 5508 5503 5499 5494 5489
5617 5616 5615 5614 5612 5610 5608 5605 5603 5600 5597 5593 5589 5585 5581 5577 5573 5569 5565 5562 5558 5555 5551 5546 5542 5537 5534 5529 5523 5517 5512 5506 5501 5496 5491 5486 5481 5477
5604 5603 5602 5600 5598 5596 5594 5592 5589 5586 5583 5580 5577 5573 5569 5565 5560 5556 5552 5549 5545 5542 5538 5533 5529 5524 5520 5517 5513 5506 5500 5495 5489 5484 5479 5474 5469 5465
5591 5590 5589 5587 5585 5582 5580 5578 5575 5573 5570 5567 5564 5560 5556 5552 5548 5544 5540 5536 5532 5529 5525 5521 5517 5512 5508 5504 5501 5496 5490 5484 5478 5473 5468 5463 5458 5453
5577 5576 5575 5573 5571 5568 5566 5564 5562 5559 5556 5554 5551 5547 5544 5540 5536 5532 5528 5524 5521 5516 5512 5508 5504 5500 5496 5492 5488 5484 5479 5474 5467 5462 5457 5452 5448 5443
5563 5562 5560 5559 5557 5555 5553 5550 5548 5546 5543 5540 5537 5534 5531 5527 5524 5521 5517 5513 5510 5506 5501 5497 5493 5489 5485 5480 5476 5471 5467 5462 5458 5452 5448 5443 5437 5433
5549 5548 5547 5545 5544 5542 5540 5537 5534 5532 5530 5527 5524 5522 5519 5516 5512 5509 5506 5502 5499 5496 5492 5487 5482 5478 5474 5470 5465 5460 5456 5451 5446 5442 5438 5434 5428 5423
5536 5535 5533 5532 5530 5528 5526 5524 5522 5519 5517 5515 5512 5509 5507 5504 5502 5498 5495 5492 5488 5485 5482 5478 5474 5469 5465 5459 5455 5451 5446 5441 5436 5432 5427 5424 5420 5415
5522 5521 5520 5519 5517 5515 5513 5511 5509 5507 5504 5502 5500 5497 5495 5493 5490 5488 5484 5481 5478 5475 5471 5467 5463 5460 5456 5452 5447 5440 5436 5432 5427 5423 5418 5414 5410 5406
5508 5508 5507 5505 5504 5502 5500 5498 5496 5494 5492 5490 5488 5485 5483 5481 5479 5476 5473 5470 5467 5464 5461 5457 5453 5449 5445 5442 5438 5433 5427 5423 5419 5415 5411 5406 5402 5397
5495 5494 5493 5492 5490 5489 5487 5485 5484 5482 5480 5478 5476 5474 5472 5470 5468 5465 5463 5460 5457 5454 5451 5447 5443 5439 5435 5432 5428 5424 5420 5414 5409 5405 5402 5398 5395 5391
5481 5480 5479 5478 5477 5476 5475 5473 5472 5470 5468 5466 5464 5462 5461 5459 5457 5454 5452 5449 5446 5444 5441 5438 5434 5430 5427 5423 5419 5416 5412 5407 5402 5396 5392 5389 5385 5383
5468 5467 5466 5465 5464 5463 5462 5461 5460 5458 5457 5455 5453 5452 5450 5448 5446 5444 5442 5439 5437 5434 5431 5429 5425 5422 5418 5415 5411 5408 5404 5400 5396 5392 5387 5382 5378 5375